| time (UTC) | temp C | wind direction | speed KPH | gust KPH | rain 1hr cm | rain 24hr cm | rain mn cm | humidity % | barometer mb |
| 20260906202322 | 36 | 76 | 0.0 | 8.0 | 0.00 | 0.00 | 0.00 | 38 | 1011.3 |
| 20260906201821 | 37 | 101 | 3.2 | 14.5 | 0.00 | 0.00 | 0.00 | 37 | 1011.6 |
| 20260906201320 | 37 | 231 | 8.0 | 14.5 | 0.00 | 0.00 | 0.00 | 36 | 1012.0 |
| 20260906200819 | 37 | 201 | 9.7 | 19.3 | 0.00 | 0.00 | 0.00 | 36 | 1011.6 |
| 20260906200320 | 38 | 257 | 4.8 | 25.7 | 0.00 | 0.00 | 0.00 | 34 | 1012.0 |
| 20260906200256 | 38 | 223 | 9.7 | 25.7 | 0.00 | 0.00 | 0.00 | 34 | 1011.6 |
| 20260906195818 | 38 | 223 | 9.7 | 25.7 | 0.00 | 0.00 | 0.00 | 34 | 1011.6 |
| 20260906195339 | 38 | 208 | 24.1 | 27.4 | 0.00 | 0.00 | 0.00 | 35 | 1012.3 |
| 20260906195320 | 37 | 262 | 12.9 | 24.1 | 0.00 | 0.00 | 0.00 | 34 | 1012.0 |
| 20260906195308 | 37 | 258 | 16.1 | 19.3 | 0.00 | 0.00 | 0.00 | 37 | 1012.6 |
| 20260906195259 | 37 | 247 | 8.0 | 17.7 | 0.00 | 0.00 | 0.00 | 36 | 1012.6 |
| 20260906195248 | 38 | 203 | 16.1 | 24.1 | 0.00 | 0.00 | 0.00 | 34 | 1012.0 |
| 20260906195235 | 37 | 261 | 11.3 | 22.5 | 0.00 | 0.00 | 0.00 | 34 | 1012.0 |
| 20260906195226 | 37 | 170 | 12.9 | 24.1 | 0.00 | 0.00 | 0.00 | 34 | 1012.3 |
| 20260906195020 | 38 | 240 | 11.3 | 24.1 | 0.00 | 0.00 | 0.00 | 34 | 1012.0 |
| 20260906194014 | 37 | 169 | 3.2 | 17.7 | 0.00 | 0.00 | 0.00 | 36 | 1012.3 |
| 20260906193959 | 37 | 268 | 4.8 | 19.3 | 0.00 | 0.00 | 0.00 | 37 | 1012.3 |
| 20260906193859 | 38 | 320 | 4.8 | 22.5 | 0.00 | 0.00 | 0.00 | 34 | 1012.0 |
| 20260906193441 | 37 | 261 | 11.3 | 22.5 | 0.00 | 0.00 | 0.00 | 34 | 1012.0 |
| 20260906193019 | 37 | 170 | 12.9 | 24.1 | 0.00 | 0.00 | 0.00 | 34 | 1012.3 |
| 20260906192756 | 37 | 258 | 16.1 | 19.3 | 0.00 | 0.00 | 0.00 | 37 | 1012.6 |
| 20260906192421 | 37 | 247 | 8.0 | 17.7 | 0.00 | 0.00 | 0.00 | 36 | 1012.6 |
| 20260906192335 | 38 | 236 | 12.9 | 27.4 | 0.00 | 0.00 | 0.00 | 35 | 1012.3 |
| 20260906191922 | 38 | 208 | 24.1 | 27.4 | 0.00 | 0.00 | 0.00 | 35 | 1012.3 |
| 20260906191715 | 37 | 169 | 3.2 | 17.7 | 0.00 | 0.00 | 0.00 | 36 | 1012.3 |
| 20260906191257 | 37 | 268 | 4.8 | 19.3 | 0.00 | 0.00 | 0.00 | 37 | 1012.3 |
| 20260906185647 | 37 | 221 | 11.3 | 16.1 | 0.00 | 0.00 | 0.00 | 37 | 1012.6 |
| 20260906185520 | 37 | 221 | 11.3 | 16.1 | 0.00 | 0.00 | 0.00 | 37 | 1012.6 |
| 20260906184810 | 37 | 200 | 6.4 | 9.7 | 0.00 | 0.00 | 0.00 | 37 | 1012.6 |
| 20260906184305 | 37 | 356 | 6.4 | 8.0 | 0.00 | 0.00 | 0.00 | 38 | 1012.6 |
| 20260906184140 | 36 | 156 | 3.2 | 12.9 | 0.00 | 0.00 | 0.00 | 40 | 1012.6 |
| 20260906183804 | 36 | 156 | 3.2 | 12.9 | 0.00 | 0.00 | 0.00 | 40 | 1012.6 |
| 20260906183637 | 36 | 170 | 4.8 | 16.1 | 0.00 | 0.00 | 0.00 | 40 | 1013.0 |
| 20260906183303 | 36 | 170 | 4.8 | 16.1 | 0.00 | 0.00 | 0.00 | 40 | 1013.0 |
| 20260906182804 | 36 | 87 | 9.7 | 19.3 | 0.00 | 0.00 | 0.00 | 40 | 1012.6 |
| 20260906182642 | 36 | 82 | 3.2 | 19.3 | 0.00 | 0.00 | 0.00 | 41 | 1013.0 |
| 20260906182514 | 36 | 82 | 3.2 | 19.3 | 0.00 | 0.00 | 0.00 | 41 | 1013.0 |
| 20260906181802 | 35 | 305 | 4.8 | 17.7 | 0.00 | 0.00 | 0.00 | 41 | 1013.4 |
| 20260906181301 | 36 | 241 | 6.4 | 12.9 | 0.00 | 0.00 | 0.00 | 40 | 1013.4 |
| 20260906180759 | 36 | 83 | 8.0 | 14.5 | 0.00 | 0.00 | 0.00 | 40 | 1013.4 |
| 20260906180301 | 36 | 258 | 1.6 | 19.3 | 0.00 | 0.00 | 0.00 | 41 | 1013.4 |
| 20260906175757 | 35 | 53 | 3.2 | 19.3 | 0.00 | 0.00 | 0.00 | 41 | 1013.4 |
| 20260906175710 | 36 | 84 | 12.9 | 12.9 | 0.00 | 0.00 | 0.00 | 40 | 1013.8 |
| 20260906175507 | 36 | 84 | 12.9 | 12.9 | 0.00 | 0.00 | 0.00 | 40 | 1013.8 |
| 20260906174756 | 36 | 169 | 3.2 | 17.7 | 0.00 | 0.00 | 0.00 | 40 | 1013.8 |
| 20260906174732 | 36 | 165 | 4.8 | 20.9 | 0.00 | 0.00 | 0.00 | 39 | 1013.8 |
| 20260906174256 | 36 | 165 | 4.8 | 20.9 | 0.00 | 0.00 | 0.00 | 39 | 1013.8 |
| 20260906173758 | 36 | 209 | 11.3 | 22.5 | 0.00 | 0.00 | 0.00 | 40 | 1013.8 |
| 20260906173736 | 36 | 248 | 14.5 | 17.7 | 0.00 | 0.00 | 0.00 | 40 | 1013.8 |
| 20260906173254 | 36 | 248 | 14.5 | 17.7 | 0.00 | 0.00 | 0.00 | 40 | 1013.8 |
| 20260906172752 | 36 | 177 | 6.4 | 14.5 | 0.00 | 0.00 | 0.00 | 40 | 1014.1 |
| 20260906172252 | 36 | 27 | 3.2 | 14.5 | 0.00 | 0.00 | 0.00 | 40 | 1014.1 |
| 20260906171752 | 36 | 148 | 4.8 | 14.5 | 0.00 | 0.00 | 0.00 | 41 | 1014.4 |
| 20260906171251 | 36 | 133 | 6.4 | 9.7 | 0.00 | 0.00 | 0.00 | 40 | 1014.1 |
| 20260906170750 | 36 | 263 | 3.2 | 17.7 | 0.00 | 0.00 | 0.00 | 42 | 1014.4 |
| 20260906170722 | 35 | 234 | 6.4 | 24.1 | 0.00 | 0.00 | 0.00 | 42 | 1014.4 |
| 20260906170250 | 35 | 234 | 6.4 | 24.1 | 0.00 | 0.00 | 0.00 | 42 | 1014.4 |
| 20260906165748 | 36 | 230 | 6.4 | 24.1 | 0.00 | 0.00 | 0.00 | 41 | 1014.4 |
| 20260906165248 | 36 | 205 | 4.8 | 20.9 | 0.00 | 0.00 | 0.00 | 41 | 1014.4 |
| 20260906164747 | 36 | 216 | 11.3 | 19.3 | 0.00 | 0.00 | 0.00 | 41 | 1014.8 |
| 20260906164659 | 36 | 266 | 8.0 | 17.7 | 0.00 | 0.00 | 0.00 | 42 | 1014.8 |
| 20260906164457 | 36 | 266 | 8.0 | 17.7 | 0.00 | 0.00 | 0.00 | 42 | 1014.8 |
| 20260906163745 | 35 | 226 | 6.4 | 22.5 | 0.00 | 0.00 | 0.00 | 42 | 1014.8 |
| 20260906163243 | 35 | 252 | 8.0 | 22.5 | 0.00 | 0.00 | 0.00 | 43 | 1014.4 |
| 20260906163126 | 36 | 234 | 12.9 | 19.3 | 0.00 | 0.00 | 0.00 | 43 | 1014.8 |
| 20260906162741 | 36 | 234 | 12.9 | 19.3 | 0.00 | 0.00 | 0.00 | 43 | 1014.8 |
| 20260906162618 | 35 | 235 | 3.2 | 19.3 | 0.00 | 0.00 | 0.00 | 44 | 1014.4 |
| 20260906162449 | 35 | 235 | 3.2 | 19.3 | 0.00 | 0.00 | 0.00 | 44 | 1014.4 |
| 20260906161737 | 35 | 243 | 14.5 | 17.7 | 0.00 | 0.00 | 0.00 | 43 | 1014.4 |
| 20260906161236 | 35 | 184 | 3.2 | 16.1 | 0.00 | 0.00 | 0.00 | 44 | 1014.4 |
| 20260906160735 | 35 | 227 | 0.0 | 16.1 | 0.00 | 0.00 | 0.00 | 44 | 1014.8 |
| 20260906160615 | 34 | 221 | 1.6 | 14.5 | 0.00 | 0.00 | 0.00 | 46 | 1014.4 |
| 20260906160448 | 34 | 221 | 1.6 | 14.5 | 0.00 | 0.00 | 0.00 | 46 | 1014.4 |
| 20260906155740 | 35 | 214 | 4.8 | 12.9 | 0.00 | 0.00 | 0.00 | 45 | 1014.4 |
| 20260906155245 | 34 | 285 | 3.2 | 12.9 | 0.00 | 0.00 | 0.00 | 46 | 1014.4 |
| 20260906154740 | 34 | 208 | 6.4 | 9.7 | 0.00 | 0.00 | 0.00 | 46 | 1014.4 |
| 20260906154605 | 33 | 320 | 6.4 | 12.9 | 0.00 | 0.00 | 0.00 | 48 | 1014.4 |
| 20260906154446 | 33 | 320 | 6.4 | 12.9 | 0.00 | 0.00 | 0.00 | 48 | 1014.4 |
| 20260906153735 | 33 | 335 | 8.0 | 12.9 | 0.00 | 0.00 | 0.00 | 49 | 1014.4 |
| 20260906153233 | 33 | 255 | 4.8 | 9.7 | 0.00 | 0.00 | 0.00 | 50 | 1014.4 |
| 20260906152734 | 33 | 265 | 3.2 | 9.7 | 0.00 | 0.00 | 0.00 | 50 | 1014.4 |
| 20260906152233 | 32 | 241 | 8.0 | 9.7 | 0.00 | 0.00 | 0.00 | 51 | 1014.4 |
| 20260906151733 | 32 | 337 | 3.2 | 9.7 | 0.00 | 0.00 | 0.00 | 52 | 1014.4 |
| 20260906151608 | 32 | 319 | 8.0 | 9.7 | 0.00 | 0.00 | 0.00 | 52 | 1014.4 |
| 20260906151233 | 32 | 319 | 8.0 | 9.7 | 0.00 | 0.00 | 0.00 | 52 | 1014.4 |
| 20260906151112 | 32 | 301 | 3.2 | 8.0 | 0.00 | 0.00 | 0.00 | 54 | 1014.4 |
| 20260906150943 | 32 | 301 | 3.2 | 8.0 | 0.00 | 0.00 | 0.00 | 54 | 1014.4 |
| 20260906150459 | 31 | 279 | 3.2 | 9.7 | 0.00 | 0.00 | 0.00 | 56 | 1014.4 |
| 20260906150446 | 31 | 295 | 4.8 | 12.9 | 0.00 | 0.00 | 0.00 | 55 | 1014.4 |
| 20260906150348 | 31 | 273 | 1.6 | 12.9 | 0.00 | 0.00 | 0.00 | 55 | 1014.1 |
| 20260906145925 | 31 | 295 | 4.8 | 12.9 | 0.00 | 0.00 | 0.00 | 55 | 1014.4 |
| 20260906145450 | 31 | 279 | 3.2 | 9.7 | 0.00 | 0.00 | 0.00 | 56 | 1014.4 |
| 20260906144737 | 31 | 275 | 0.0 | 9.7 | 0.00 | 0.00 | 0.00 | 56 | 1014.4 |
| 20260906144235 | 30 | 248 | 6.4 | 9.7 | 0.00 | 0.00 | 0.00 | 57 | 1014.4 |
| 20260906143736 | 30 | 227 | 6.4 | 12.9 | 0.00 | 0.00 | 0.00 | 58 | 1014.4 |
| 20260906143235 | 30 | 294 | 3.2 | 12.9 | 0.00 | 0.00 | 0.00 | 58 | 1014.4 |
| 20260906142735 | 30 | 279 | 3.2 | 14.5 | 0.00 | 0.00 | 0.00 | 58 | 1014.4 |
| 20260906142237 | 30 | 236 | 9.7 | 17.7 | 0.00 | 0.00 | 0.00 | 58 | 1014.4 |
| 20260906141736 | 30 | 254 | 8.0 | 17.7 | 0.00 | 0.00 | 0.00 | 58 | 1014.1 |
| 20260906141236 | 30 | 256 | 11.3 | 16.1 | 0.00 | 0.00 | 0.00 | 57 | 1014.1 |
| 20260906141154 | 30 | 258 | 4.8 | 14.5 | 0.00 | 0.00 | 0.00 | 57 | 1014.4 |
| 20260906140958 | 30 | 258 | 4.8 | 14.5 | 0.00 | 0.00 | 0.00 | 57 | 1014.4 |
| 20260906140526 | 30 | 204 | 9.7 | 14.5 | 0.00 | 0.00 | 0.00 | 58 | 1014.1 |
| 20260906140402 | 30 | 267 | 6.4 | 14.5 | 0.00 | 0.00 | 0.00 | 57 | 1014.4 |
| 20260906135946 | 30 | 204 | 9.7 | 14.5 | 0.00 | 0.00 | 0.00 | 58 | 1014.1 |
| 20260906135235 | 30 | 248 | 6.4 | 19.3 | 0.00 | 0.00 | 0.00 | 59 | 1014.1 |
| 20260906135104 | 29 | 253 | 6.4 | 19.3 | 0.00 | 0.00 | 0.00 | 59 | 1014.1 |
| 20260906134948 | 29 | 253 | 6.4 | 19.3 | 0.00 | 0.00 | 0.00 | 59 | 1014.1 |
| 20260906134236 | 29 | 222 | 6.4 | 17.7 | 0.00 | 0.00 | 0.00 | 60 | 1014.1 |
| 20260906133735 | 28 | 255 | 9.7 | 12.9 | 0.00 | 0.00 | 0.00 | 61 | 1013.8 |
| 20260906133600 | 28 | 238 | 6.4 | 11.3 | 0.00 | 0.00 | 0.00 | 62 | 1013.8 |
| 20260906133235 | 28 | 238 | 6.4 | 11.3 | 0.00 | 0.00 | 0.00 | 62 | 1013.8 |
| 20260906132737 | 28 | 228 | 6.4 | 12.9 | 0.00 | 0.00 | 0.00 | 63 | 1014.1 |
| 20260906132237 | 27 | 251 | 8.0 | 12.9 | 0.00 | 0.00 | 0.00 | 64 | 1013.8 |
| 20260906131737 | 27 | 242 | 6.4 | 8.0 | 0.00 | 0.00 | 0.00 | 66 | 1013.8 |
| 20260906131553 | 27 | 193 | 1.6 | 8.0 | 0.00 | 0.00 | 0.00 | 66 | 1013.8 |
| 20260906131447 | 27 | 193 | 1.6 | 8.0 | 0.00 | 0.00 | 0.00 | 66 | 1013.8 |
| 20260906130735 | 26 | 201 | 4.8 | 8.0 | 0.00 | 0.00 | 0.00 | 67 | 1013.8 |
| 20260906130721 | 26 | 214 | 4.8 | 8.0 | 0.00 | 0.00 | 0.00 | 68 | 1013.8 |
| 20260906130713 | 26 | 229 | 3.2 | 8.0 | 0.00 | 0.00 | 0.00 | 68 | 1013.8 |
| 20260906130330 | 26 | 214 | 4.8 | 8.0 | 0.00 | 0.00 | 0.00 | 68 | 1013.8 |
| 20260906125551 | 26 | 222 | 4.8 | 6.4 | 0.00 | 0.00 | 0.00 | 69 | 1013.8 |
| 20260906125234 | 26 | 222 | 4.8 | 6.4 | 0.00 | 0.00 | 0.00 | 69 | 1013.8 |
| 20260906124738 | 26 | 212 | 4.8 | 6.4 | 0.00 | 0.00 | 0.00 | 70 | 1013.8 |
| 20260906124233 | 25 | 215 | 4.8 | 6.4 | 0.00 | 0.00 | 0.00 | 70 | 1013.4 |
| 20260906123733 | 25 | 206 | 3.2 | 4.8 | 0.00 | 0.00 | 0.00 | 71 | 1013.4 |
| 20260906123232 | 25 | 239 | 1.6 | 4.8 | 0.00 | 0.00 | 0.00 | 71 | 1013.4 |
| 20260906122736 | 25 | 194 | 3.2 | 6.4 | 0.00 | 0.00 | 0.00 | 72 | 1013.4 |
| 20260906122236 | 25 | 210 | 3.2 | 6.4 | 0.00 | 0.00 | 0.00 | 72 | 1013.4 |
| 20260906121736 | 25 | 211 | 3.2 | 8.0 | 0.00 | 0.00 | 0.00 | 71 | 1013.4 |
| 20260906121229 | 25 | 170 | 3.2 | 9.7 | 0.00 | 0.00 | 0.00 | 71 | 1013.0 |
| 20260906120728 | 25 | 210 | 4.8 | 9.7 | 0.00 | 0.00 | 0.00 | 71 | 1013.0 |
| 20260906120227 | 25 | 186 | 8.0 | 9.7 | 0.00 | 0.00 | 0.00 | 71 | 1013.4 |
| 20260906115726 | 25 | 206 | 6.4 | 9.7 | 0.00 | 0.00 | 0.00 | 70 | 1013.0 |
| 20260906115226 | 25 | 208 | 4.8 | 9.7 | 0.00 | 0.00 | 0.00 | 71 | 1012.6 |
| 20260906114724 | 25 | 197 | 4.8 | 8.0 | 0.00 | 0.00 | 0.00 | 70 | 1013.0 |
| 20260906114614 | 25 | 208 | 3.2 | 6.4 | 0.00 | 0.00 | 0.00 | 71 | 1012.6 |
| 20260906114224 | 25 | 208 | 3.2 | 6.4 | 0.00 | 0.00 | 0.00 | 71 | 1012.6 |
| 20260906113723 | 25 | 241 | 3.2 | 6.4 | 0.00 | 0.00 | 0.00 | 70 | 1013.0 |
| 20260906113223 | 25 | 227 | 3.2 | 8.0 | 0.00 | 0.00 | 0.00 | 70 | 1013.0 |
| 20260906112722 | 25 | 219 | 4.8 | 8.0 | 0.00 | 0.00 | 0.00 | 70 | 1012.6 |
| 20260906112221 | 25 | 225 | 3.2 | 9.7 | 0.00 | 0.00 | 0.00 | 69 | 1012.6 |
| 20260906111721 | 25 | 207 | 6.4 | 8.0 | 0.00 | 0.00 | 0.00 | 69 | 1012.6 |
| 20260906111219 | 25 | 211 | 8.0 | 8.0 | 0.00 | 0.00 | 0.00 | 69 | 1012.6 |
| 20260906110718 | 26 | 195 | 4.8 | 9.7 | 0.00 | 0.00 | 0.00 | 68 | 1013.0 |
| 20260906110626 | 26 | 187 | 3.2 | 9.7 | 0.00 | 0.00 | 0.00 | 68 | 1012.6 |
| 20260906110428 | 26 | 187 | 3.2 | 9.7 | 0.00 | 0.00 | 0.00 | 68 | 1012.6 |
| 20260906105715 | 25 | 201 | 9.7 | 9.7 | 0.00 | 0.00 | 0.00 | 68 | 1012.6 |
| 20260906105214 | 25 | 207 | 4.8 | 8.0 | 0.00 | 0.00 | 0.00 | 69 | 1012.6 |
| 20260906104712 | 25 | 208 | 4.8 | 4.8 | 0.00 | 0.00 | 0.00 | 70 | 1012.6 |
| 20260906104212 | 25 | 207 | 3.2 | 4.8 | 0.00 | 0.00 | 0.00 | 71 | 1012.3 |
| 20260906103711 | 25 | 210 | 3.2 | 4.8 | 0.00 | 0.00 | 0.00 | 71 | 1012.6 |
| 20260906103211 | 25 | 208 | 4.8 | 8.0 | 0.00 | 0.00 | 0.00 | 71 | 1012.6 |
| 20260906102710 | 24 | 203 | 4.8 | 8.0 | 0.00 | 0.00 | 0.00 | 72 | 1012.6 |
| 20260906102208 | 23 | 207 | 3.2 | 4.8 | 0.00 | 0.00 | 0.00 | 75 | 1012.3 |
| 20260906101707 | 23 | 200 | 3.2 | 3.2 | 0.00 | 0.00 | 0.00 | 76 | 1012.6 |
| 20260906101207 | 23 | 219 | 0.0 | 1.6 | 0.00 | 0.00 | 0.00 | 76 | 1012.3 |
| 20260906100708 | 23 | 117 | 0.0 | 1.6 | 0.00 | 0.00 | 0.00 | 76 | 1012.6 |
| 20260906100207 | 23 | 129 | 0.0 | 1.6 | 0.00 | 0.00 | 0.00 | 75 | 1012.3 |
| 20260906100026 | 23 | 107 | 0.0 | 1.6 | 0.00 | 0.00 | 0.00 | 74 | 1012.6 |
| 20260906095918 | 23 | 107 | 0.0 | 1.6 | 0.00 | 0.00 | 0.00 | 74 | 1012.6 |
| 20260906095207 | 24 | 135 | 0.0 | 1.6 | 0.00 | 0.00 | 0.00 | 72 | 1012.3 |
| 20260906094708 | 24 | 269 | 0.0 | 3.2 | 0.00 | 0.00 | 0.00 | 71 | 1012.3 |
| 20260906094206 | 24 | 186 | 0.0 | 4.8 | 0.00 | 0.00 | 0.00 | 71 | 1012.3 |
| 20260906093704 | 24 | 283 | 0.0 | 4.8 | 0.00 | 0.00 | 0.00 | 71 | 1012.3 |
| 20260906093205 | 25 | 185 | 1.6 | 3.2 | 0.00 | 0.00 | 0.00 | 70 | 1012.3 |
| 20260906093016 | 25 | 206 | 1.6 | 6.4 | 0.00 | 0.00 | 0.00 | 69 | 1012.3 |
| 20260906092704 | 25 | 206 | 1.6 | 6.4 | 0.00 | 0.00 | 0.00 | 69 | 1012.3 |
| 20260906092203 | 25 | 209 | 1.6 | 6.4 | 0.00 | 0.00 | 0.00 | 68 | 1012.3 |
| 20260906092021 | 25 | 203 | 3.2 | 6.4 | 0.00 | 0.00 | 0.00 | 68 | 1012.3 |
| 20260906091914 | 25 | 203 | 3.2 | 6.4 | 0.00 | 0.00 | 0.00 | 68 | 1012.3 |
| 20260906091201 | 25 | 207 | 3.2 | 6.4 | 0.00 | 0.00 | 0.00 | 68 | 1012.3 |
| 20260906090700 | 25 | 205 | 3.2 | 6.4 | 0.00 | 0.00 | 0.00 | 68 | 1012.3 |
| 20260906090523 | 25 | 198 | 3.2 | 3.2 | 0.00 | 0.00 | 0.00 | 69 | 1012.3 |
| 20260906090411 | 25 | 198 | 3.2 | 3.2 | 0.00 | 0.00 | 0.00 | 69 | 1012.3 |
| 20260906085701 | 25 | 240 | 1.6 | 4.8 | 0.00 | 0.00 | 0.00 | 69 | 1012.3 |
| 20260906085540 | 25 | 209 | 3.2 | 6.4 | 0.00 | 0.00 | 0.00 | 68 | 1012.3 |
| 20260906085158 | 25 | 209 | 3.2 | 6.4 | 0.00 | 0.00 | 0.00 | 68 | 1012.3 |
| 20260906084657 | 25 | 204 | 3.2 | 6.4 | 0.00 | 0.00 | 0.00 | 68 | 1012.3 |
| 20260906084155 | 25 | 208 | 4.8 | 6.4 | 0.00 | 0.00 | 0.00 | 69 | 1012.0 |
| 20260906083655 | 25 | 208 | 3.2 | 4.8 | 0.00 | 0.00 | 0.00 | 68 | 1012.3 |
| 20260906083427 | 25 | 216 | 4.8 | 6.4 | 0.00 | 0.00 | 0.00 | 67 | 1012.3 |
| 20260906083410 | 25 | 223 | 1.6 | 6.4 | 0.00 | 0.00 | 0.00 | 67 | 1012.0 |
| 20260906083300 | 25 | 199 | 3.2 | 4.8 | 0.00 | 0.00 | 0.00 | 67 | 1012.3 |
| 20260906082830 | 25 | 216 | 4.8 | 6.4 | 0.00 | 0.00 | 0.00 | 67 | 1012.3 |
| 20260906081651 | 25 | 199 | 4.8 | 8.0 | 0.00 | 0.00 | 0.00 | 67 | 1012.3 |
| 20260906081156 | 25 | 253 | 3.2 | 8.0 | 0.00 | 0.00 | 0.00 | 68 | 1012.3 |
| 20260906080959 | 24 | 201 | 3.2 | 4.8 | 0.00 | 0.00 | 0.00 | 71 | 1012.3 |
| 20260906080836 | 24 | 189 | 3.2 | 4.8 | 0.00 | 0.00 | 0.00 | 72 | 1012.3 |
| 20260906080154 | 24 | 201 | 3.2 | 4.8 | 0.00 | 0.00 | 0.00 | 71 | 1012.3 |
| 20260906075649 | 24 | 200 | 4.8 | 4.8 | 0.00 | 0.00 | 0.00 | 71 | 1012.0 |
| 20260906075148 | 24 | 202 | 4.8 | 4.8 | 0.00 | 0.00 | 0.00 | 71 | 1012.0 |
| 20260906074647 | 24 | 179 | 1.6 | 3.2 | 0.00 | 0.00 | 0.00 | 71 | 1012.0 |
| 20260906074147 | 24 | 188 | 0.0 | 1.6 | 0.00 | 0.00 | 0.00 | 72 | 1012.0 |
| 20260906073646 | 24 | 210 | 0.0 | 0.0 | 0.00 | 0.00 | 0.00 | 71 | 1012.3 |
| 20260906073142 | 24 | 195 | 0.0 | 1.6 | 0.00 | 0.00 | 0.00 | 70 | 1012.0 |
| 20260906072641 | 24 | 195 | 0.0 | 1.6 | 0.00 | 0.00 | 0.00 | 70 | 1012.0 |
| 20260906072141 | 25 | 169 | 0.0 | 1.6 | 0.00 | 0.00 | 0.00 | 70 | 1012.0 |
| 20260906071640 | 25 | 226 | 1.6 | 3.2 | 0.00 | 0.00 | 0.00 | 69 | 1012.3 |
| 20260906071139 | 25 | 240 | 1.6 | 3.2 | 0.00 | 0.00 | 0.00 | 69 | 1012.3 |
| 20260906070638 | 25 | 200 | 1.6 | 3.2 | 0.00 | 0.00 | 0.00 | 69 | 1012.3 |
| 20260906070138 | 25 | 255 | 0.0 | 3.2 | 0.00 | 0.00 | 0.00 | 69 | 1012.3 |
| 20260906065636 | 25 | 220 | 1.6 | 3.2 | 0.00 | 0.00 | 0.00 | 69 | 1012.3 |
| 20260906065454 | 25 | 195 | 0.0 | 1.6 | 0.00 | 0.00 | 0.00 | 69 | 1012.3 |
| 20260906065136 | 25 | 195 | 0.0 | 1.6 | 0.00 | 0.00 | 0.00 | 69 | 1012.3 |
| 20260906064636 | 25 | 210 | 0.0 | 1.6 | 0.00 | 0.00 | 0.00 | 69 | 1012.0 |
| 20260906064452 | 25 | 218 | 0.0 | 1.6 | 0.00 | 0.00 | 0.00 | 68 | 1012.0 |
| 20260906064350 | 25 | 218 | 0.0 | 1.6 | 0.00 | 0.00 | 0.00 | 68 | 1012.0 |
| 20260906063637 | 25 | 304 | 0.0 | 0.0 | 0.00 | 0.00 | 0.00 | 68 | 1012.3 |
| 20260906063151 | 25 | 205 | 0.0 | 1.6 | 0.00 | 0.00 | 0.00 | 65 | 1012.0 |
| 20260906063139 | 25 | 304 | 0.0 | 1.6 | 0.00 | 0.00 | 0.00 | 67 | 1012.0 |
| 20260906062745 | 25 | 195 | 0.0 | 1.6 | 0.00 | 0.00 | 0.00 | 66 | 1012.0 |
| 20260906062133 | 25 | 205 | 0.0 | 1.6 | 0.00 | 0.00 | 0.00 | 65 | 1012.0 |
| 20260906061633 | 26 | 205 | 0.0 | 3.2 | 0.00 | 0.00 | 0.00 | 65 | 1012.0 |
| 20260906061505 | 26 | 232 | 0.0 | 3.2 | 0.00 | 0.00 | 0.00 | 65 | 1012.3 |
| 20260906061132 | 26 | 232 | 0.0 | 3.2 | 0.00 | 0.00 | 0.00 | 65 | 1012.3 |
| 20260906060954 | 26 | 222 | 1.6 | 3.2 | 0.00 | 0.00 | 0.00 | 64 | 1012.0 |
| 20260906060631 | 26 | 222 | 1.6 | 3.2 | 0.00 | 0.00 | 0.00 | 64 | 1012.0 |
| 20260906060510 | 26 | 230 | 0.0 | 3.2 | 0.00 | 0.00 | 0.00 | 64 | 1012.0 |
| 20260906060341 | 26 | 230 | 0.0 | 3.2 | 0.00 | 0.00 | 0.00 | 64 | 1012.0 |
| 20260906055715 | 26 | 233 | 0.0 | 3.2 | 0.00 | 0.00 | 0.00 | 64 | 1012.0 |
| 20260906055711 | 26 | 232 | 3.2 | 3.2 | 0.00 | 0.00 | 0.00 | 64 | 1012.3 |
| 20260906055649 | 26 | 213 | 3.2 | 3.2 | 0.00 | 0.00 | 0.00 | 64 | 1012.3 |
| 20260906055245 | 26 | 232 | 3.2 | 3.2 | 0.00 | 0.00 | 0.00 | 64 | 1012.3 |
| 20260906054840 | 26 | 233 | 0.0 | 3.2 | 0.00 | 0.00 | 0.00 | 64 | 1012.0 |
| 20260906054128 | 26 | 312 | 1.6 | 3.2 | 0.00 | 0.00 | 0.00 | 63 | 1012.0 |
| 20260906054015 | 26 | 253 | 1.6 | 3.2 | 0.00 | 0.00 | 0.00 | 64 | 1012.0 |
| 20260906053838 | 26 | 253 | 1.6 | 3.2 | 0.00 | 0.00 | 0.00 | 64 | 1012.0 |
| 20260906053126 | 26 | 239 | 1.6 | 3.2 | 0.00 | 0.00 | 0.00 | 64 | 1012.0 |
| 20260906052624 | 26 | 239 | 3.2 | 3.2 | 0.00 | 0.00 | 0.00 | 63 | 1012.0 |
| 20260906052539 | 26 | 256 | 3.2 | 3.2 | 0.00 | 0.00 | 0.00 | 63 | 1012.0 |
| 20260906052125 | 26 | 256 | 3.2 | 3.2 | 0.00 | 0.00 | 0.00 | 63 | 1012.0 |
| 20260906051624 | 26 | 276 | 1.6 | 1.6 | 0.00 | 0.00 | 0.00 | 62 | 1012.3 |
| 20260906051536 | 26 | 220 | 0.0 | 3.2 | 0.00 | 0.00 | 0.00 | 62 | 1012.3 |
| 20260906051122 | 26 | 220 | 0.0 | 3.2 | 0.00 | 0.00 | 0.00 | 62 | 1012.3 |
| 20260906050621 | 27 | 164 | 0.0 | 4.8 | 0.00 | 0.00 | 0.00 | 62 | 1012.0 |
| 20260906050121 | 27 | 127 | 3.2 | 4.8 | 0.00 | 0.00 | 0.00 | 62 | 1012.0 |
| 20260906045620 | 27 | 167 | 3.2 | 3.2 | 0.00 | 0.00 | 0.00 | 62 | 1012.0 |
| 20260906045527 | 27 | 132 | 3.2 | 3.2 | 0.00 | 0.00 | 0.00 | 60 | 1012.0 |
| 20260906045120 | 27 | 132 | 3.2 | 3.2 | 0.00 | 0.00 | 0.00 | 60 | 1012.0 |
| 20260906045033 | 27 | 186 | 0.0 | 1.6 | 0.00 | 0.00 | 0.00 | 59 | 1012.0 |
| 20260906044618 | 27 | 186 | 0.0 | 1.6 | 0.00 | 0.00 | 0.00 | 59 | 1012.0 |
| 20260906044118 | 27 | 224 | 0.0 | 3.2 | 0.00 | 0.00 | 0.00 | 58 | 1012.0 |
| 20260906044028 | 27 | 238 | 0.0 | 3.2 | 0.00 | 0.00 | 0.00 | 58 | 1012.0 |
| 20260906043614 | 27 | 238 | 0.0 | 3.2 | 0.00 | 0.00 | 0.00 | 58 | 1012.0 |
| 20260906043113 | 27 | 206 | 1.6 | 3.2 | 0.00 | 0.00 | 0.00 | 58 | 1012.0 |
| 20260906042613 | 27 | 230 | 0.0 | 3.2 | 0.00 | 0.00 | 0.00 | 58 | 1012.0 |
| 20260906042459 | 28 | 227 | 1.6 | 3.2 | 0.00 | 0.00 | 0.00 | 58 | 1012.0 |
| 20260906042112 | 28 | 227 | 1.6 | 3.2 | 0.00 | 0.00 | 0.00 | 58 | 1012.0 |
| 20260906041612 | 28 | 297 | 0.0 | 3.2 | 0.00 | 0.00 | 0.00 | 57 | 1012.0 |
| 20260906041156 | 28 | 238 | 0.0 | 3.2 | 0.00 | 0.00 | 0.00 | 55 | 1012.0 |
| 20260906041150 | 28 | 246 | 1.6 | 3.2 | 0.00 | 0.00 | 0.00 | 56 | 1012.0 |
| 20260906041123 | 28 | 237 | 1.6 | 3.2 | 0.00 | 0.00 | 0.00 | 57 | 1012.0 |
| 20260906040723 | 28 | 246 | 1.6 | 3.2 | 0.00 | 0.00 | 0.00 | 56 | 1012.0 |
| 20260906040108 | 28 | 238 | 0.0 | 3.2 | 0.00 | 0.00 | 0.00 | 55 | 1012.0 |
| 20260906035753 | 29 | 242 | 1.6 | 4.8 | 0.00 | 0.00 | 0.00 | 54 | 1012.0 |
| 20260906035714 | 29 | 252 | 1.6 | 3.2 | 0.00 | 0.00 | 0.00 | 55 | 1012.0 |
| 20260906034926 | 29 | 269 | 1.6 | 4.8 | 0.00 | 0.00 | 0.00 | 53 | 1012.0 |
| 20260906034607 | 29 | 269 | 1.6 | 4.8 | 0.00 | 0.00 | 0.00 | 53 | 1012.0 |
| 20260906034112 | 29 | 265 | 1.6 | 4.8 | 0.00 | 0.00 | 0.00 | 53 | 1012.0 |
| 20260906033612 | 29 | 214 | 3.2 | 3.2 | 0.00 | 0.00 | 0.00 | 53 | 1012.0 |
| 20260906033111 | 29 | 251 | 3.2 | 3.2 | 0.00 | 0.00 | 0.00 | 53 | 1012.0 |
| 20260906032926 | 30 | 273 | 0.0 | 4.8 | 0.00 | 0.00 | 0.00 | 53 | 1012.0 |
| 20260906032609 | 30 | 273 | 0.0 | 4.8 | 0.00 | 0.00 | 0.00 | 53 | 1012.0 |
| 20260906032111 | 30 | 231 | 1.6 | 4.8 | 0.00 | 0.00 | 0.00 | 52 | 1012.0 |
| 20260906031608 | 30 | 260 | 1.6 | 4.8 | 0.00 | 0.00 | 0.00 | 52 | 1011.6 |
| 20260906031106 | 30 | 241 | 3.2 | 6.4 | 0.00 | 0.00 | 0.00 | 52 | 1012.0 |
| 20260906030604 | 30 | 230 | 4.8 | 6.4 | 0.00 | 0.00 | 0.00 | 52 | 1011.6 |
| 20260906030101 | 30 | 256 | 3.2 | 4.8 | 0.00 | 0.00 | 0.00 | 52 | 1012.0 |
| 20260906025559 | 30 | 236 | 1.6 | 4.8 | 0.00 | 0.00 | 0.00 | 52 | 1012.0 |
| 20260906025311 | 30 | 256 | 1.6 | 4.8 | 0.00 | 0.00 | 0.00 | 51 | 1011.6 |
| 20260906025217 | 30 | 240 | 1.6 | 4.8 | 0.00 | 0.00 | 0.00 | 52 | 1012.0 |
| 20260906024808 | 30 | 256 | 1.6 | 4.8 | 0.00 | 0.00 | 0.00 | 51 | 1011.6 |
| 20260906024309 | 30 | 211 | 4.8 | 6.4 | 0.00 | 0.00 | 0.00 | 50 | 1011.6 |
| 20260906024204 | 30 | 252 | 1.6 | 3.2 | 0.00 | 0.00 | 0.00 | 51 | 1011.6 |
| 20260906023740 | 30 | 217 | 0.0 | 4.8 | 0.00 | 0.00 | 0.00 | 51 | 1011.6 |
| 20260906023307 | 30 | 211 | 4.8 | 6.4 | 0.00 | 0.00 | 0.00 | 50 | 1011.6 |
| 20260906022554 | 30 | 242 | 1.6 | 4.8 | 0.00 | 0.00 | 0.00 | 50 | 1011.6 |
| 20260906022054 | 30 | 256 | 3.2 | 3.2 | 0.00 | 0.00 | 0.00 | 51 | 1011.3 |
| 20260906021915 | 30 | 251 | 3.2 | 3.2 | 0.00 | 0.00 | 0.00 | 52 | 1011.3 |
| 20260906021740 | 30 | 253 | 3.2 | 3.2 | 0.00 | 0.00 | 0.00 | 52 | 1011.3 |
| 20260906021054 | 30 | 251 | 3.2 | 3.2 | 0.00 | 0.00 | 0.00 | 52 | 1011.3 |
| 20260906020553 | 30 | 278 | 0.0 | 3.2 | 0.00 | 0.00 | 0.00 | 51 | 1011.3 |
| 20260906020206 | 31 | 242 | 1.6 | 3.2 | 0.00 | 0.00 | 0.00 | 49 | 1011.3 |
| 20260906020126 | 30 | 269 | 0.0 | 3.2 | 0.00 | 0.00 | 0.00 | 51 | 1011.3 |
| 20260906015706 | 31 | 232 | 0.0 | 3.2 | 0.00 | 0.00 | 0.00 | 50 | 1011.3 |
| 20260906015252 | 31 | 242 | 1.6 | 3.2 | 0.00 | 0.00 | 0.00 | 49 | 1011.3 |
| 20260906014920 | 31 | 261 | 1.6 | 3.2 | 0.00 | 0.00 | 0.00 | 48 | 1011.3 |
| 20260906014751 | 31 | 261 | 1.6 | 3.2 | 0.00 | 0.00 | 0.00 | 48 | 1011.3 |
| 20260906014035 | 31 | 259 | 1.6 | 3.2 | 0.00 | 0.00 | 0.00 | 48 | 1011.0 |
| 20260906013852 | 32 | 245 | 0.0 | 3.2 | 0.00 | 0.00 | 0.00 | 47 | 1011.0 |
| 20260906013535 | 31 | 241 | 1.6 | 3.2 | 0.00 | 0.00 | 0.00 | 48 | 1011.0 |
| 20260906013136 | 31 | 215 | 0.0 | 3.2 | 0.00 | 0.00 | 0.00 | 47 | 1011.0 |
| 20260906012747 | 32 | 245 | 0.0 | 3.2 | 0.00 | 0.00 | 0.00 | 47 | 1011.0 |
| 20260906012035 | 32 | 248 | 1.6 | 3.2 | 0.00 | 0.00 | 0.00 | 47 | 1011.0 |
| 20260906011537 | 32 | 223 | 1.6 | 4.8 | 0.00 | 0.00 | 0.00 | 46 | 1010.6 |
| 20260906011034 | 32 | 210 | 3.2 | 4.8 | 0.00 | 0.00 | 0.00 | 45 | 1011.0 |
| 20260906010534 | 33 | 211 | 3.2 | 4.8 | 0.00 | 0.00 | 0.00 | 44 | 1010.6 |
| 20260906010033 | 33 | 223 | 3.2 | 4.8 | 0.00 | 0.00 | 0.00 | 44 | 1010.6 |
| 20260906005854 | 33 | 206 | 1.6 | 4.8 | 0.00 | 0.00 | 0.00 | 43 | 1010.6 |
| 20260906005743 | 33 | 206 | 1.6 | 4.8 | 0.00 | 0.00 | 0.00 | 43 | 1010.6 |
| 20260906005032 | 33 | 227 | 1.6 | 3.2 | 0.00 | 0.00 | 0.00 | 42 | 1011.0 |
| 20260906004529 | 34 | 217 | 1.6 | 3.2 | 0.00 | 0.00 | 0.00 | 42 | 1011.0 |
| 20260906004029 | 34 | 210 | 0.0 | 4.8 | 0.00 | 0.00 | 0.00 | 41 | 1011.0 |
| 20260906003530 | 35 | 205 | 0.0 | 4.8 | 0.00 | 0.00 | 0.00 | 40 | 1010.6 |
| 20260906003431 | 35 | 221 | 4.8 | 4.8 | 0.00 | 0.00 | 0.00 | 40 | 1010.2 |
| 20260906003237 | 35 | 221 | 4.8 | 4.8 | 0.00 | 0.00 | 0.00 | 40 | 1010.2 |
| 20260906002527 | 35 | 202 | 4.8 | 6.4 | 0.00 | 0.00 | 0.00 | 39 | 1010.2 |
| 20260906002026 | 35 | 229 | 0.0 | 8.0 | 0.00 | 0.00 | 0.00 | 39 | 1010.6 |
| 20260906001524 | 35 | 124 | 0.0 | 8.0 | 0.00 | 0.00 | 0.00 | 38 | 1011.0 |
| 20260906001023 | 35 | 171 | 0.0 | 8.0 | 0.00 | 0.00 | 0.00 | 38 | 1010.6 |
| 20260906000611 | 36 | 155 | 3.2 | 9.7 | 0.00 | 0.00 | 0.00 | 39 | 1010.2 |
| 20260906000542 | 35 | 218 | 0.0 | 8.0 | 0.00 | 0.00 | 0.00 | 38 | 1010.2 |
| 20260906000129 | 35 | 108 | 3.2 | 9.7 | 0.00 | 0.00 | 0.00 | 39 | 1010.2 |
| 20260906000124 | 35 | 174 | 3.2 | 8.0 | 0.00 | 0.00 | 0.00 | 38 | 1010.2 |
| 20260906000112 | 35 | 104 | 3.2 | 9.7 | 0.00 | 0.00 | 0.00 | 39 | 1010.2 |
| 20260906000058 | 35 | 204 | 3.2 | 9.7 | 0.00 | 0.00 | 0.00 | 39 | 1010.2 |
| 20260906000028 | 35 | 169 | 8.0 | 9.7 | 0.00 | 0.00 | 0.00 | 38 | 1010.6 |
| 20260905235602 | 35 | 108 | 3.2 | 9.7 | 0.00 | 0.00 | 0.00 | 39 | 1010.2 |
| 20260905235133 | 35 | 174 | 3.2 | 8.0 | 0.00 | 0.00 | 0.00 | 38 | 1010.2 |
| 20260905234835 | 36 | 155 | 3.2 | 9.7 | 0.00 | 0.00 | 0.00 | 39 | 1010.2 |
| 20260905234655 | 35 | 155 | 1.6 | 8.0 | 0.00 | 0.00 | 0.00 | 39 | 1010.2 |
| 20260905234238 | 35 | 104 | 3.2 | 9.7 | 0.00 | 0.00 | 0.00 | 39 | 1010.2 |
| 20260905232918 | 36 | 181 | 8.0 | 17.7 | 0.00 | 0.00 | 0.00 | 36 | 1009.8 |
| 20260905232914 | 36 | 199 | 8.0 | 12.9 | 0.00 | 0.00 | 0.00 | 38 | 1009.8 |
| 20260905232900 | 36 | 153 | 4.8 | 17.7 | 0.00 | 0.00 | 0.00 | 37 | 1009.8 |
| 20260905232524 | 36 | 199 | 8.0 | 12.9 | 0.00 | 0.00 | 0.00 | 38 | 1009.8 |
| 20260905232119 | 36 | 153 | 4.8 | 17.7 | 0.00 | 0.00 | 0.00 | 37 | 1009.8 |
| 20260905231508 | 36 | 181 | 8.0 | 17.7 | 0.00 | 0.00 | 0.00 | 36 | 1009.8 |
| 20260905231346 | 37 | 192 | 9.7 | 20.9 | 0.00 | 0.00 | 0.00 | 36 | 1009.8 |
| 20260905231010 | 37 | 192 | 9.7 | 20.9 | 0.00 | 0.00 | 0.00 | 36 | 1009.8 |
| 20260905230512 | 37 | 147 | 6.4 | 20.9 | 0.00 | 0.00 | 0.00 | 35 | 1009.8 |
| 20260905230010 | 37 | 168 | 8.0 | 14.5 | 0.00 | 0.00 | 0.00 | 35 | 1009.8 |
| 20260905225509 | 37 | 161 | 4.8 | 14.5 | 0.00 | 0.00 | 0.00 | 35 | 1009.8 |
| 20260905225009 | 37 | 137 | 3.2 | 14.5 | 0.00 | 0.00 | 0.00 | 36 | 1009.8 |
| 20260905224841 | 37 | 143 | 3.2 | 14.5 | 0.00 | 0.00 | 0.00 | 36 | 1009.8 |
| 20260905224507 | 37 | 143 | 3.2 | 14.5 | 0.00 | 0.00 | 0.00 | 36 | 1009.8 |
| 20260905224005 | 37 | 131 | 1.6 | 14.5 | 0.00 | 0.00 | 0.00 | 36 | 1009.8 |
| 20260905223505 | 37 | 168 | 6.4 | 14.5 | 0.00 | 0.00 | 0.00 | 35 | 1009.8 |
| 20260905223008 | 37 | 180 | 9.7 | 20.9 | 0.00 | 0.00 | 0.00 | 35 | 1009.8 |
| 20260905222927 | 37 | 222 | 6.4 | 20.9 | 0.00 | 0.00 | 0.00 | 35 | 1009.8 |
| 20260905222721 | 37 | 222 | 6.4 | 20.9 | 0.00 | 0.00 | 0.00 | 35 | 1009.8 |
| 20260905222008 | 37 | 160 | 9.7 | 20.9 | 0.00 | 0.00 | 0.00 | 35 | 1009.8 |
| 20260905221508 | 37 | 178 | 3.2 | 17.7 | 0.00 | 0.00 | 0.00 | 35 | 1009.8 |
| 20260905221009 | 37 | 57 | 4.8 | 17.7 | 0.00 | 0.00 | 0.00 | 35 | 1009.8 |
| 20260905220834 | 38 | 114 | 6.4 | 19.3 | 0.00 | 0.00 | 0.00 | 35 | 1010.2 |
| 20260905220642 | 37 | 63 | 1.6 | 19.3 | 0.00 | 0.00 | 0.00 | 36 | 1009.8 |
| 20260905215923 | 37 | 224 | 3.2 | 17.7 | 0.00 | 0.00 | 0.00 | 35 | 1010.2 |
| 20260905215721 | 37 | 224 | 3.2 | 17.7 | 0.00 | 0.00 | 0.00 | 35 | 1010.2 |
| 20260905215009 | 37 | 297 | 0.0 | 16.1 | 0.00 | 0.00 | 0.00 | 36 | 1010.2 |
| 20260905214508 | 36 | 178 | 4.8 | 16.1 | 0.00 | 0.00 | 0.00 | 37 | 1009.8 |
| 20260905214007 | 37 | 174 | 11.3 | 14.5 | 0.00 | 0.00 | 0.00 | 37 | 1010.6 |
| 20260905213916 | 37 | 223 | 3.2 | 24.1 | 0.00 | 0.00 | 0.00 | 36 | 1010.6 |
| 20260905213858 | 37 | 49 | 3.2 | 24.1 | 0.00 | 0.00 | 0.00 | 37 | 1010.6 |
| 20260905213726 | 37 | 165 | 1.6 | 14.5 | 0.00 | 0.00 | 0.00 | 36 | 1010.6 |
| 20260905212008 | 37 | 153 | 11.3 | 24.1 | 0.00 | 0.00 | 0.00 | 36 | 1010.6 |
| 20260905211507 | 37 | 182 | 3.2 | 24.1 | 0.00 | 0.00 | 0.00 | 36 | 1011.0 |
| 20260905211155 | 37 | 231 | 16.1 | 17.7 | 0.00 | 0.00 | 0.00 | 36 | 1010.6 |
| 20260905211111 | 38 | 217 | 14.5 | 17.7 | 0.00 | 0.00 | 0.00 | 35 | 1010.6 |
| 20260905210506 | 37 | 231 | 16.1 | 17.7 | 0.00 | 0.00 | 0.00 | 36 | 1010.6 |
| 20260905210006 | 38 | 238 | 4.8 | 20.9 | 0.00 | 0.00 | 0.00 | 34 | 1011.0 |
| 20260905205505 | 37 | 335 | 3.2 | 20.9 | 0.00 | 0.00 | 0.00 | 35 | 1011.0 |
| 20260905205003 | 37 | 208 | 11.3 | 22.5 | 0.00 | 0.00 | 0.00 | 35 | 1011.0 |
| 20260905204504 | 37 | 89 | 4.8 | 22.5 | 0.00 | 0.00 | 0.00 | 36 | 1011.0 |
| 20260905204002 | 37 | 229 | 9.7 | 30.6 | 0.00 | 0.00 | 0.00 | 36 | 1011.3 |
| 20260905203500 | 37 | 175 | 11.3 | 30.6 | 0.00 | 0.00 | 0.00 | 36 | 1011.3 |
| 20260905202958 | 37 | 201 | 6.4 | 25.7 | 0.00 | 0.00 | 0.00 | 36 | 1011.3 |
| 20260905202835 | 37 | 180 | 9.7 | 20.9 | 0.00 | 0.00 | 0.00 | 36 | 1011.6 |